Location: Ann Arbor
(42.2710°N, 83.7260°W)
Time: 05:16:13
(UTC-04:00)

N. Korean satellite - Visible Passes

Search period start: 19 October 2017 00:00
Search period end: 29 October 2017 00:00
Orbit: 459 x 517 km, 97.2° (Epoch: 18 October)

Date Brightness Start Highest point End Pass type
(mag) Time Alt. Az. Time Alt. Az. Time Alt. Az.
19 Oct 9.8 20:37:13 10° SW 20:39:22 15° W 20:41:30 10° NW visible
20 Oct 8.7 20:12:47 10° SSW 20:15:54 29° W 20:18:59 10° NW visible
21 Oct 7.1 19:49:02 10° S 19:52:30 60° W 19:55:57 10° NNW visible
22 Oct 6.4 19:25:42 10° SSE 19:29:10 63° ENE 19:32:37 10° N visible
23 Oct 7.3 19:02:48 10° SE 19:05:54 30° ENE 19:08:59 10° N visible
23 Oct 9.8 20:37:27 10° SW 20:39:31 15° W 20:41:34 10° NW visible
24 Oct 8.7 20:12:58 10° SSW 20:16:01 28° W 20:19:05 10° NW visible
25 Oct 7.1 19:49:11 10° S 19:52:37 59° W 19:56:03 10° NNW visible
26 Oct 10.6 07:18:21 10° E 07:18:50 10° E 07:19:19 10° E visible
26 Oct 6.4 19:25:49 10° SSE 19:29:15 64° ENE 19:32:41 10° N visible
27 Oct 7.2 19:02:54 10° SE 19:05:59 31° ENE 19:09:04 10° N visible
27 Oct 9.8 20:37:36 10° SW 20:39:36 15° W 20:41:36 10° WNW visible
28 Oct 8.7 20:13:05 10° SSW 20:16:06 28° W 20:19:07 10° NW visible
